Location: Unspecified
(0.0000°N, 0.0000°E)
Time: 13:22:43
(UTC+00:00)

Vanguard 2 Rocket - All Passes

Search period start: 07 October 2022 00:00
Search period end: 17 October 2022 00:00
Orbit: 553 x 3323 km, 32.9° (Epoch: 06 October)

Date Brightness Start Highest point End Pass type
(mag) Time Alt. Az. Time Alt. Az. Time Alt. Az.
07 Oct - 04:51:51 10° NNW 04:55:51 27° NNE 04:59:15 10° E visible
07 Oct - 07:05:32 10° W 07:08:38 22° SSW 07:12:08 10° SSE daylight
07 Oct - 13:52:47 10° SSW 14:02:13 21° SSE 14:14:31 10° ESE daylight
07 Oct - 16:04:45 10° SW 16:20:53 57° SE 16:40:37 10° ENE daylight
07 Oct - 18:20:30 10° WSW 18:39:53 69° NW 18:58:23 10° NE visible
07 Oct - 20:43:10 10° W 20:59:11 29° NNW 21:11:56 10° NNE visible
08 Oct - 03:52:17 10° NNW 03:55:39 16° NNE 03:58:25 10° ENE visible
08 Oct - 06:04:51 10° WNW 06:08:50 47° SW 06:12:44 10° SE daylight
08 Oct - 12:54:45 10° S 12:59:47 13° SSE 13:05:48 10° SE daylight
08 Oct - 15:04:33 10° SSW 15:18:13 42° SE 15:36:30 10° E daylight
08 Oct - 17:18:34 10° SW 17:36:46 87° NW 17:56:45 10° NE daylight
08 Oct - 19:38:01 10° W 19:56:11 40° NNW 20:11:46 10° NNE visible
08 Oct - 22:07:44 10° NW 22:16:28 15° NNW 22:23:41 10° N visible
09 Oct - 02:52:55 10° N 02:54:58 11° NNE 02:56:47 10° NE visible
09 Oct - 05:04:27 10° NW 05:09:11 72° NNE 05:13:05 10° ESE visible
09 Oct - 14:04:58 10° SSW 14:15:55 29° SE 14:31:00 10° E daylight
09 Oct - 16:17:28 10° SW 16:33:50 74° SE 16:54:18 10° ENE daylight
09 Oct - 18:34:22 10° WSW 18:53:01 53° NW 19:10:59 10° NE visible
09 Oct - 20:59:41 10° WNW 21:13:16 22° NNW 21:24:22 10° NNE visible
10 Oct - 04:04:06 10° NW 04:09:19 35° NNE 04:13:09 10° E visible
10 Oct - 06:19:09 10° W 06:22:04 19° SW 06:24:57 10° SSE daylight
10 Oct - 13:06:14 10° S 13:13:52 19° SSE 13:23:56 10° ESE daylight
10 Oct - 15:17:04 10° SW 15:31:15 57° SE 15:50:53 10° ENE daylight
10 Oct - 17:31:56 10° WSW 17:49:49 68° NW 18:09:35 10° NE visible
10 Oct - 19:53:28 10° W 20:09:55 30° NNW 20:24:13 10° NNE visible
10 Oct - 22:25:40 10° NW 22:31:28 12° NNW 22:36:29 10° N visible
11 Oct - 03:03:38 10° NNW 03:08:58 22° NNE 03:12:50 10° ENE visible
11 Oct - 05:17:50 10° WNW 05:22:21 42° SW 05:26:06 10° SE visible
11 Oct - 12:11:17 10° SSE 12:11:58 10° SSE 12:12:40 10° SSE daylight
11 Oct - 14:17:18 10° SSW 14:29:06 40° SE 14:46:21 10° E daylight
11 Oct - 16:30:29 10° SW 16:46:47 86° NW 17:07:27 10° NE daylight
11 Oct - 18:48:55 10° W 19:06:29 40° NNW 19:23:29 10° NNE visible
11 Oct - 21:17:01 10° NW 21:27:57 17° NNW 21:37:07 10° NNE visible
12 Oct - 02:02:54 10° NNW 02:08:08 17° NNE 02:12:03 10° ENE night (unlit)
12 Oct - 04:16:48 10° NW 04:22:41 83° NNE 04:26:48 10° ESE visible
12 Oct - 13:18:11 10° SSW 13:27:22 27° SE 13:40:34 10° E daylight
12 Oct - 15:29:49 10° SW 15:44:07 75° SE 16:04:32 10° ENE daylight
12 Oct - 17:45:50 10° WSW 18:03:05 52° NNW 18:22:10 10° NE visible
12 Oct - 20:09:49 10° WNW 20:24:14 23° NNW 20:36:50 10° NNE visible
12 Oct - 22:41:57 10° NNW 22:46:46 12° N 22:50:58 10° NNE visible
13 Oct - 01:01:36 10° NNW 01:06:46 14° NNE 01:10:48 10° NE night (unlit)
13 Oct - 03:15:46 10° NW 03:22:42 44° NNE 03:27:09 10° ESE visible
13 Oct - 05:32:15 10° W 05:35:26 18° SW 05:38:14 10° S daylight
13 Oct - 12:20:08 10° S 12:25:52 16° SE 12:33:15 10° ESE daylight
13 Oct - 14:29:48 10° SW 14:42:00 56° SE 15:00:44 10° ENE daylight
13 Oct - 16:43:53 10° WSW 16:59:53 66° NW 17:20:13 10° NE daylight
13 Oct - 19:04:18 10° W 19:20:26 31° NNW 19:35:59 10° NNE visible
13 Oct - 21:34:17 10° NW 21:43:09 15° NNW 21:50:41 10° NNE visible
13 Oct - 23:59:20 10° NNW 00:04:45 13° N 00:09:10 10° NE night (unlit)
14 Oct - 02:14:33 10° NNW 02:22:10 30° NNE 02:27:05 10° E visible
14 Oct - 04:30:15 10° WNW 04:35:47 42° SW 04:39:45 10° SSE visible
14 Oct - 13:30:23 10° SSW 13:40:25 38° SE 13:55:58 10° E daylight
14 Oct - 15:42:51 10° WSW 15:57:05 84° NW 16:17:39 10° NE daylight
14 Oct - 18:00:23 10° W 18:16:45 39° NNW 18:34:38 10° NE visible
14 Oct - 20:26:50 10° NW 20:39:09 19° NNW 20:49:55 10° NNE visible
14 Oct - 22:55:33 10° NNW 23:02:02 13° N 23:07:24 10° NNE visible
15 Oct - 01:12:59 10° NNW 01:21:06 23° NNE 01:26:35 10° ENE night (unlit)
15 Oct - 03:28:34 10° NW 03:36:03 88° SW 03:40:39 10° SE visible
15 Oct - 12:31:42 10° S 12:39:12 24° SE 12:50:07 10° E daylight
15 Oct - 14:42:34 10° SW 14:54:50 76° SE 15:14:22 10° ENE daylight
15 Oct - 16:57:50 10° WSW 17:13:19 50° NNW 17:32:46 10° NE daylight
15 Oct - 19:20:30 10° WNW 19:34:58 24° NNW 19:48:44 10° NNE visible
15 Oct - 21:50:08 10° NNW 21:58:36 15° N 22:05:41 10° NNE visible
16 Oct - 00:10:51 10° NNW 00:19:26 20° NNE 00:25:33 10° ENE night (unlit)
16 Oct - 02:26:51 10° NW 02:35:52 55° NNE 02:41:09 10° ESE visible
16 Oct - 04:44:42 10° W 04:48:42 19° SW 04:51:54 10° S visible
16 Oct - 11:34:37 10° SSE 11:38:12 13° SE 11:42:29 10° ESE daylight
16 Oct - 13:42:53 10° SW 13:53:13 54° SE 14:10:20 10° ENE daylight
16 Oct - 15:56:19 10° WSW 16:10:18 64° NNW 16:30:21 10° NE daylight
16 Oct - 18:15:43 10° WNW 18:30:55 30° NNW 18:47:10 10° NNE visible
16 Oct - 20:43:40 10° NW 20:54:32 17° N 21:03:57 10° NNE visible
16 Oct - 23:07:59 10° NNW 23:17:05 18° N 23:23:56 10° NE visible
